GFSGBSN_925_thetae_159.txt.gz
Theta_e
311 311 311 311 310 309 308 308 308 306 306 305 305 305 304 305 305 305 306 306 307 307 308 308 308 312 317 317 317 316 320 324 320 319 320 321 323 327 326 328 324 324 330 329 342 350 350
310 310 311 311 310 309 309 309 308 306 305 304 304 305 305 306 306 306 306 307 308 308 308 308 308 313 319 319 317 320 327 325 324 320 319 320 323 325 327 325 324 332 340 344 348 352 352
310 310 310 310 310 309 309 309 309 307 304 303 303 304 305 306 307 307 307 308 309 309 308 310 311 315 319 320 317 318 321 321 321 318 319 319 321 326 325 326 327 338 346 348 350 351 353
309 309 309 309 309 307 308 308 308 305 303 303 303 303 303 306 307 307 308 308 309 309 313 312 314 319 319 318 316 318 319 319 318 318 319 318 319 322 326 325 332 340 342 345 347 349 351
308 308 308 308 306 305 305 306 305 304 303 303 303 303 302 303 305 307 309 308 312 314 314 315 321 321 321 321 322 322 320 318 317 317 317 319 320 322 323 328 340 339 343 344 347 348 351
309 308 308 308 306 305 304 303 303 303 302 302 302 303 303 303 304 306 309 309 318 318 318 321 325 323 321 324 324 323 321 317 317 318 318 320 322 324 325 330 338 343 343 343 347 347 349
309 309 309 308 307 306 305 304 303 302 302 302 302 303 303 303 303 305 307 309 314 316 317 325 323 321 320 322 322 324 321 318 317 318 319 320 323 323 325 327 330 341 342 344 344 344 348
308 308 308 308 308 308 306 305 304 303 302 302 302 302 302 302 303 308 307 310 307 306 311 312 312 318 319 319 322 323 321 325 319 318 319 321 321 323 325 326 331 338 343 344 336 341 347
307 307 307 307 307 308 307 306 305 303 302 302 302 302 302 303 304 305 307 308 306 306 312 315 314 315 316 319 322 323 323 321 320 319 320 320 321 322 325 327 331 334 342 340 341 334 343
306 306 306 306 306 305 305 306 306 303 302 302 302 302 302 301 304 303 308 306 305 306 319 320 319 319 321 322 323 323 324 323 319 320 319 321 320 323 325 327 328 333 329 331 330 332 332
306 305 305 306 305 304 304 304 306 303 302 302 302 302 302 302 304 306 307 305 306 308 320 319 320 319 323 323 324 324 321 322 322 320 320 321 321 323 325 326 327 329 327 329 330 330 336
306 306 305 305 304 302 302 303 303 302 302 302 302 301 301 305 303 304 305 304 309 321 323 322 322 321 325 324 325 322 322 323 321 319 319 321 319 322 324 323 325 324 326 326 328 331 333
305 305 305 304 303 303 303 303 302 302 301 301 301 301 302 304 306 303 303 307 316 322 321 321 323 322 324 324 324 326 324 326 325 322 321 320 321 320 321 323 323 324 328 333 334 333 334
305 305 304 304 303 302 303 303 302 301 301 301 301 301 301 302 303 304 305 311 316 318 321 321 319 320 324 324 323 327 326 328 324 321 321 321 319 321 321 323 325 325 327 334 336 334 333
305 305 304 304 302 302 303 303 302 300 301 300 301 302 302 304 306 304 308 311 314 316 319 320 320 320 320 323 324 326 328 328 326 321 321 321 320 320 320 322 325 325 325 327 330 328 329
304 304 304 303 303 302 302 302 302 301 301 301 302 301 302 306 306 305 309 310 312 311 314 316 320 320 321 322 325 325 328 329 327 322 322 323 323 322 323 321 321 325 325 326 327 332 331
304 304 304 303 303 303 302 302 302 302 301 302 301 303 305 306 304 307 309 309 310 311 312 314 317 320 321 322 323 326 325 325 328 322 322 321 323 325 324 323 323 324 325 327 328 330 333
304 303 303 303 303 303 302 302 302 302 302 303 300 303 305 304 312 308 311 310 309 311 312 312 313 314 318 318 319 321 326 326 325 323 323 323 324 324 326 324 325 324 325 327 328 334 331
303 303 303 302 303 303 303 302 302 302 303 304 303 301 302 303 310 309 311 313 312 311 312 312 313 313 314 317 318 317 318 317 319 323 327 323 325 326 326 325 322 326 326 327 329 331 334
303 303 303 302 303 303 303 303 302 302 303 304 303 304 306 308 307 309 311 314 313 313 313 312 312 312 313 315 315 316 317 316 315 320 329 324 327 328 327 328 327 327 326 327 329 331 332
303 303 303 303 303 303 303 303 302 302 303 303 302 303 304 307 309 306 309 312 314 316 315 316 314 313 313 314 315 315 315 316 316 320 322 323 326 326 327 328 328 327 326 326 328 329 331
303 303 303 303 303 303 303 303 302 302 303 303 304 304 305 304 305 308 308 312 314 311 313 316 318 315 317 316 315 316 315 316 318 317 318 324 326 327 326 325 325 326 327 327 327 328 329
302 303 303 303 303 303 303 302 303 302 303 303 301 303 306 303 304 304 306 309 310 308 310 312 311 311 316 318 316 318 319 319 318 321 320 320 329 330 329 327 326 326 326 327 327 328 328
302 302 302 302 303 303 303 302 302 302 303 303 301 303 305 304 303 303 305 304 306 307 309 308 308 310 315 313 315 318 318 321 322 323 321 322 329 328 329 330 331 330 329 327 328 328 329
302 302 302 302 302 302 303 302 302 302 302 302 303 303 305 305 304 303 303 304 304 305 307 308 308 309 311 313 320 324 323 324 323 323 324 321 322 323 328 331 331 330 328 328 328 330 329
301 302 301 302 302 302 302 303 303 302 302 302 302 302 304 305 304 303 306 306 306 306 309 310 309 309 310 315 320 328 324 322 323 321 322 321 325 323 328 329 333 331 332 328 330 333 333
301 302 302 302 302 302 302 302 302 302 302 302 302 302 303 305 303 304 304 304 305 305 306 308 308 309 312 321 325 325 323 323 322 323 325 321 322 326 326 328 331 333 338 331 333 335 338
302 301 301 302 302 302 302 302 302 302 302 302 302 302 303 304 303 303 304 304 304 306 305 306 307 311 315 320 325 325 326 324 325 324 327 326 328 325 327 329 330 340 339 334 341 341 337
301 301 302 302 301 301 301 301 301 302 302 302 301 301 301 302 303 303 303 303 303 303 305 305 306 308 311 319 319 320 323 328 327 327 329 330 327 328 331 328 341 340 344 339 338 343 340

GFSGBSN_925_thetae_162.txt.gz
Theta_e
311 311 311 311 310 308 308 309 309 306 304 304 304 304 306 308 308 308 308 308 309 309 309 309 308 308 319 325 324 320 319 322 326 331 324 324 325 327 328 331 329 330 334 334 346 348 345
311 311 311 310 309 306 307 308 308 305 304 303 303 303 303 305 307 307 308 308 309 309 309 309 309 310 323 323 322 326 335 330 330 324 321 323 325 327 328 330 329 336 341 336 347 350 351
309 310 310 310 308 306 306 307 306 304 303 303 303 303 303 303 304 305 307 309 309 309 310 309 310 315 321 322 321 322 330 330 329 325 322 322 324 326 327 329 333 343 346 347 349 351 352
308 308 308 309 308 306 306 305 304 304 303 302 302 302 302 303 303 304 307 309 308 311 313 312 313 324 322 321 320 320 323 323 324 324 321 321 322 326 328 329 337 343 346 347 351 351 352
310 310 309 309 309 307 306 306 305 304 303 302 302 302 302 302 303 304 306 308 312 315 314 314 324 324 323 321 323 321 321 324 321 320 321 321 322 326 327 330 339 342 339 341 350 348 352
309 309 309 309 309 309 307 306 305 305 303 302 302 302 302 302 303 304 308 308 318 319 322 324 325 326 324 326 326 323 323 323 323 322 322 322 324 325 328 332 336 337 340 338 343 349 350
307 308 308 308 308 308 308 308 306 306 303 302 302 302 302 302 303 306 308 314 321 326 326 326 326 324 323 325 324 325 323 321 323 324 323 323 324 325 328 334 335 336 337 337 340 346 350
307 307 307 307 307 306 305 305 306 306 304 302 302 302 302 301 303 307 310 315 311 309 316 317 318 323 324 323 326 328 324 327 325 324 324 323 323 326 329 331 334 335 337 337 342 345 347
307 306 306 306 306 304 302 303 303 304 303 302 302 302 301 301 304 309 313 310 308 309 316 319 318 318 320 323 325 327 327 329 327 323 323 324 324 327 327 329 332 336 337 337 338 343 345
306 305 305 306 306 304 302 302 303 303 302 302 302 301 301 299 308 308 314 309 308 309 321 324 321 322 320 322 323 325 327 329 327 323 322 323 325 325 326 329 333 338 336 336 339 340 337
306 305 305 305 305 305 303 303 303 302 302 301 301 301 301 303 306 310 309 308 308 312 326 323 322 322 324 323 323 324 327 328 324 322 322 323 324 324 326 329 332 336 336 337 338 338 336
305 305 305 304 304 303 302 303 303 303 301 300 300 301 301 308 307 308 307 307 311 323 326 323 323 324 325 324 324 326 326 329 327 322 323 323 324 325 326 329 331 332 333 336 336 336 337
305 305 305 304 304 302 302 302 302 302 301 300 300 300 303 306 308 307 307 311 318 324 324 323 324 325 325 324 325 327 327 330 329 325 323 322 323 324 326 328 330 331 335 337 337 337 337
304 305 304 304 303 303 302 302 301 302 301 300 300 303 306 305 307 307 309 314 320 322 324 323 323 324 326 325 325 326 327 329 329 325 324 323 322 324 324 328 330 331 335 336 340 339 337
305 305 304 304 303 303 303 302 301 302 301 300 301 305 306 307 308 309 312 316 319 321 321 322 323 324 325 326 325 326 328 328 330 328 324 324 324 324 325 325 330 331 336 335 336 337 338
304 304 304 304 303 303 303 302 302 302 301 300 304 305 307 308 309 310 311 313 317 316 317 320 324 324 325 324 326 326 328 327 328 329 326 324 325 324 324 325 326 332 332 334 334 339 341
304 304 303 303 302 302 303 303 302 302 301 302 306 307 308 309 309 313 312 312 313 315 315 318 321 323 324 324 325 327 326 327 327 330 328 325 324 325 324 325 326 326 330 333 334 335 337
304 303 303 302 302 302 302 303 302 302 301 305 306 308 306 308 313 312 313 313 310 312 314 315 316 318 323 324 324 326 328 326 327 328 329 327 325 326 325 325 325 327 329 332 334 337 333
303 303 303 303 303 302 303 302 303 302 302 304 307 307 305 307 309 312 314 314 313 313 313 314 316 317 320 322 323 324 325 323 324 328 330 329 326 327 326 327 327 326 326 328 330 332 335
303 303 303 303 303 303 302 302 303 302 302 304 307 306 308 311 310 311 312 313 313 314 314 314 315 316 318 318 321 323 322 320 322 327 330 331 328 330 329 328 327 327 326 326 328 331 330
303 303 303 303 302 303 303 302 302 302 302 304 306 307 307 308 311 310 311 311 313 314 315 317 316 315 317 319 320 321 321 320 320 322 326 330 332 332 331 329 327 327 327 328 329 329 330
303 303 303 303 303 302 302 302 302 302 303 305 306 306 307 307 306 307 308 312 313 314 315 316 318 317 318 318 319 320 320 321 323 322 326 326 331 332 332 330 330 329 328 328 328 328 329
303 303 303 302 303 303 303 303 302 303 303 305 305 305 307 306 306 306 306 308 311 310 313 315 315 315 319 319 319 320 321 322 323 325 324 326 328 332 331 330 329 331 331 330 330 329 329
302 302 302 302 302 303 303 303 302 302 302 306 305 305 307 307 306 306 305 306 307 307 310 311 312 314 317 313 316 319 320 320 321 323 324 326 329 331 331 330 332 330 329 329 329 329 330
302 302 302 302 302 303 302 303 303 301 302 304 305 304 305 307 305 305 305 305 306 306 307 308 309 311 313 314 320 323 323 321 320 321 321 323 326 326 330 332 332 330 331 330 330 331 330
302 302 303 302 302 303 303 303 303 302 302 303 305 305 304 306 305 305 305 306 307 308 308 308 310 310 311 314 320 323 323 323 324 322 322 323 324 326 328 330 332 330 331 332 331 334 332
301 302 302 303 302 303 303 303 303 303 302 303 304 304 304 306 304 306 306 306 306 306 308 308 310 311 313 316 321 323 323 322 324 325 325 325 326 324 325 327 329 329 331 332 336 333 333
300 301 301 303 304 302 302 302 302 303 303 302 303 304 304 304 304 304 305 306 306 306 307 308 308 312 314 317 323 322 322 322 324 325 327 328 328 327 325 327 329 333 338 336 335 336 343
300 301 303 302 302 302 301 301 301 302 301 302 303 303 304 305 304 303 304 304 304 305 306 306 308 309 311 319 322 324 327 325 324 326 325 330 326 326 326 327 332 329 340 337 344 345 345

GFSGBSN_925_thetae_165.txt.gz
Theta_e
311 311 311 311 308 306 306 307 306 304 303 303 303 303 303 304 305 305 305 307 309 309 310 310 309 309 315 329 326 326 323 319 326 332 332 330 330 331 332 333 334 334 337 340 343 342 340
311 311 311 310 310 308 307 306 305 304 304 303 303 303 303 303 304 304 304 306 309 310 310 310 310 309 321 324 325 326 328 330 328 330 330 328 328 329 331 332 334 337 338 340 344 344 343
311 311 310 310 310 310 309 309 307 305 304 303 303 303 302 302 303 303 305 306 308 309 309 310 310 313 323 324 323 325 330 331 329 327 328 326 326 328 330 332 334 341 339 343 346 346 345
310 310 310 310 310 310 310 310 309 306 305 303 302 302 302 302 302 303 305 306 308 309 314 314 311 322 325 323 323 322 329 331 330 329 324 324 325 327 329 333 335 340 340 344 346 346 346
309 309 309 309 309 309 309 309 308 306 306 304 302 302 302 302 302 303 305 308 309 315 315 314 322 328 325 322 322 323 325 328 329 329 327 324 325 326 329 332 336 339 342 343 344 346 344
307 308 308 309 308 307 305 305 304 305 306 303 302 302 302 301 301 304 307 311 315 318 321 325 326 329 325 326 325 324 325 328 327 325 324 324 325 327 329 334 336 338 339 346 342 343 344
308 308 308 308 308 307 304 303 303 303 303 302 302 302 302 301 301 307 311 318 325 328 326 326 329 324 326 326 327 325 326 328 327 325 324 324 325 328 333 333 334 337 340 342 339 341 343
307 307 307 307 307 306 304 303 303 303 303 302 302 301 301 301 301 309 314 320 315 313 318 322 323 327 325 326 327 325 327 328 327 326 325 325 325 330 333 335 334 336 338 338 338 342 341
307 307 306 306 306 305 304 302 303 303 303 302 301 301 301 301 305 314 316 314 313 313 318 322 322 322 326 326 326 328 328 328 327 326 326 326 327 329 332 334 334 336 337 338 340 341 340
305 306 305 305 305 304 303 302 303 303 303 302 301 301 300 300 310 311 317 314 313 313 321 325 323 323 322 324 325 327 328 328 329 328 326 326 328 329 331 333 334 336 335 336 337 342 343
304 304 306 305 304 304 303 302 301 302 302 302 301 301 301 303 309 313 313 311 311 316 329 327 325 324 323 323 325 326 328 329 330 329 327 326 326 328 330 332 333 334 336 336 337 340 338
304 305 305 305 305 304 303 303 302 301 301 301 301 301 301 309 310 311 311 311 313 324 330 326 325 324 325 323 324 325 327 329 329 329 327 326 327 327 330 332 333 334 336 337 336 339 341
305 306 305 304 304 303 303 302 302 301 301 301 301 300 303 307 310 310 310 313 319 326 328 327 326 325 327 324 324 325 326 329 330 329 326 325 325 326 328 330 333 334 336 340 339 339 339
305 305 305 305 304 303 302 302 301 301 301 301 300 303 308 308 308 309 311 316 323 327 327 327 327 326 327 326 325 327 327 329 330 329 327 325 324 326 327 329 333 335 335 338 342 340 338
305 305 304 304 303 303 302 302 303 302 301 301 302 307 308 309 310 311 314 317 322 325 326 327 326 327 327 327 326 327 328 328 330 331 329 327 326 326 326 327 331 334 336 335 337 339 339
304 304 304 303 302 302 302 302 303 303 301 301 305 308 309 310 310 312 314 315 320 322 322 323 326 326 328 328 327 327 329 328 328 330 330 328 327 327 326 327 329 332 334 335 337 343 341
304 304 303 302 302 302 302 302 303 303 301 301 307 310 311 311 312 315 314 314 316 318 319 319 323 327 328 328 328 328 328 329 328 329 330 329 327 328 327 326 326 330 333 334 335 336 339
304 304 303 303 303 303 302 302 302 302 301 305 307 311 310 309 313 314 314 314 314 316 317 317 319 321 325 328 329 328 329 328 329 329 330 331 328 328 327 327 327 328 330 332 337 341 337
304 303 303 303 303 302 303 303 302 302 302 304 310 310 308 307 309 310 313 313 315 316 316 316 317 319 321 325 329 328 328 329 328 329 329 332 330 329 328 328 327 327 328 330 333 335 338
303 303 303 302 303 303 302 302 302 302 302 303 309 310 310 311 311 311 314 316 317 316 316 317 317 318 319 322 325 328 327 328 325 327 339 333 331 330 329 330 328 327 327 328 330 334 333
303 303 303 303 302 303 303 302 302 302 302 304 309 310 309 311 312 313 312 313 314 315 316 316 318 317 318 321 323 324 326 326 324 328 327 331 333 330 328 328 329 328 328 327 328 329 332
303 303 303 303 303 303 303 303 302 302 302 304 309 308 308 310 309 309 310 310 312 312 314 318 319 320 319 320 322 323 324 326 325 325 326 329 334 332 331 329 329 330 329 329 328 328 329
303 303 303 303 303 303 303 303 302 302 302 305 307 307 308 308 308 309 309 309 309 314 314 315 317 320 320 320 321 321 322 324 326 328 327 329 331 334 335 331 331 331 332 330 329 329 329
302 303 303 303 303 303 303 303 303 302 302 304 305 307 309 309 308 308 309 308 308 310 311 312 314 316 318 317 318 320 321 323 324 326 328 330 334 332 335 334 336 333 332 331 331 331 331
302 302 303 303 303 303 303 303 303 302 302 303 305 306 307 307 307 307 307 307 308 308 308 308 310 312 313 315 320 322 322 323 323 324 327 328 331 333 334 334 333 332 331 331 332 333 332
302 302 302 302 303 303 303 303 303 303 302 302 304 306 307 307 306 306 307 307 307 309 309 310 309 311 314 316 319 322 323 323 324 324 324 325 329 332 333 334 338 332 331 331 331 333 331
301 301 302 303 304 303 304 303 303 303 303 302 303 305 306 307 306 306 307 307 308 308 309 309 311 311 313 316 318 319 320 322 324 325 326 325 327 329 331 333 332 332 331 332 336 335 333
301 301 303 303 303 302 303 302 302 302 302 303 303 304 305 306 306 305 306 306 306 307 308 309 311 310 312 316 317 318 320 322 324 326 329 327 328 328 329 331 333 329 330 333 337 335 335
302 302 303 303 302 302 302 303 302 301 302 302 304 303 305 306 305 304 304 304 305 306 306 309 309 311 313 319 323 324 323 323 325 326 326 332 329 330 328 330 330 330 332 337 337 346 344

GFSGBSN_925_thetae_168.txt.gz
Theta_e
312 312 312 311 311 310 310 310 308 306 305 304 303 303 303 303 303 303 304 305 307 309 310 310 310 310 314 325 325 326 323 322 321 327 328 331 333 334 333 334 335 335 337 342 341 339 338
312 312 311 311 311 311 311 310 310 308 306 305 303 302 302 303 303 303 304 305 306 307 309 309 310 309 320 321 322 328 328 328 327 327 329 331 332 332 332 332 334 335 337 342 341 341 340
310 310 310 310 309 310 309 310 310 307 306 306 303 302 302 302 302 303 304 305 306 307 309 310 313 315 320 322 324 326 327 330 328 327 330 330 330 330 330 331 334 337 337 342 342 343 342
309 309 309 309 309 309 307 307 306 304 304 304 302 302 302 301 301 302 303 305 307 309 310 315 313 321 321 322 322 324 325 329 329 328 327 330 328 329 329 331 334 337 339 343 344 344 346
309 309 309 309 309 309 307 304 303 303 303 302 302 302 301 301 301 302 303 308 308 310 315 314 319 324 325 325 325 324 324 330 330 329 328 328 326 327 328 329 333 336 341 344 345 344 349
308 308 308 309 308 308 305 304 303 303 303 303 302 302 301 301 301 302 306 313 313 314 320 323 324 329 331 326 325 323 324 328 330 330 330 328 326 326 328 331 334 337 341 346 347 344 349
308 308 308 308 307 306 304 304 302 303 303 303 303 302 302 301 302 304 308 316 324 327 322 327 326 323 325 327 325 324 324 326 329 329 329 328 325 327 329 331 333 335 344 346 344 342 344
307 307 307 307 307 306 304 303 303 302 302 302 302 302 301 301 302 307 311 322 318 316 318 322 327 328 328 326 328 327 325 328 328 325 325 325 325 328 331 332 333 334 337 345 344 343 342
304 304 305 306 306 306 305 304 303 303 302 301 301 302 301 301 304 312 314 318 315 315 318 320 321 325 328 327 328 327 326 328 328 326 324 325 326 328 331 334 334 334 336 339 342 342 342
304 304 304 305 305 304 304 303 303 302 302 301 301 302 301 300 310 311 316 316 314 315 320 324 323 323 323 326 326 327 326 328 328 327 326 325 327 328 330 333 334 335 335 337 339 342 345
306 305 305 305 304 304 303 303 302 302 301 301 301 301 301 300 307 313 315 313 314 316 328 329 326 326 324 324 326 326 327 328 328 328 327 326 325 327 329 331 333 335 335 336 336 340 342
306 305 305 305 305 304 303 302 302 302 302 301 301 301 301 306 310 312 313 313 314 321 329 329 326 325 324 323 324 326 327 328 328 328 329 327 328 327 328 331 332 334 334 335 336 336 341
305 305 304 304 304 304 303 302 301 302 302 302 301 301 302 306 309 311 312 314 319 324 329 330 327 326 325 323 323 325 326 329 329 330 331 330 328 327 328 329 332 333 333 336 342 342 338
304 304 304 303 303 302 302 302 301 302 302 302 301 302 307 310 311 312 311 316 322 326 326 330 328 327 326 325 323 324 326 328 329 330 331 331 328 327 327 327 330 333 333 338 345 343 338
304 303 303 303 302 302 302 302 302 302 302 302 302 306 308 309 311 311 314 316 322 325 328 328 329 328 327 327 325 324 325 326 328 329 332 330 328 327 327 327 328 332 334 334 335 339 339
304 304 303 302 302 302 302 301 302 302 302 301 304 308 311 310 311 312 314 316 319 322 325 324 327 329 329 328 327 325 326 327 327 329 330 330 329 327 326 327 328 329 333 335 337 343 345
304 303 303 303 303 303 302 302 302 302 301 302 307 311 311 311 312 314 315 314 315 317 318 320 323 326 329 329 329 328 326 328 328 328 329 330 330 329 328 327 326 326 330 334 335 337 341
304 303 302 303 302 302 303 303 302 302 302 305 306 309 312 312 313 313 313 313 314 315 317 319 320 322 324 325 328 330 329 328 329 329 329 330 330 332 329 328 327 327 329 332 339 344 340
303 303 302 303 303 302 303 302 302 302 302 304 308 309 309 310 312 311 311 313 314 315 316 317 319 319 321 323 326 329 331 330 329 329 330 331 332 334 330 329 328 327 327 331 333 336 343
303 304 302 302 302 301 301 302 302 302 302 304 307 311 312 311 310 310 310 312 313 315 315 317 318 318 319 320 322 325 329 330 329 329 337 333 330 335 333 330 329 329 327 328 330 336 336
303 303 303 302 302 302 302 302 302 302 302 304 307 311 310 312 313 313 315 312 315 318 317 317 318 318 319 320 321 323 326 329 329 328 328 329 336 335 331 330 329 328 328 327 330 332 332
303 303 303 303 303 303 303 303 302 302 302 304 306 309 310 312 310 311 312 313 313 314 315 317 318 318 320 320 321 323 326 328 330 329 328 329 336 334 333 331 330 329 329 328 328 328 330
303 303 303 303 303 303 304 304 303 303 302 304 306 307 310 309 309 309 310 311 311 311 312 315 317 319 322 322 320 320 320 322 324 328 331 330 333 339 337 332 331 330 330 330 330 330 329
302 302 303 303 302 303 304 304 303 303 303 303 304 306 309 309 309 310 311 311 311 311 313 313 313 316 318 318 316 319 321 322 323 326 328 335 340 336 335 337 337 332 331 330 331 331 333
302 302 302 303 303 304 304 304 304 303 303 303 303 306 308 308 307 307 308 309 310 310 310 310 310 311 312 313 316 322 322 324 325 325 328 329 332 332 338 337 335 333 333 332 334 335 334
302 302 302 303 304 304 304 304 304 303 303 303 302 305 306 308 307 307 308 308 309 309 310 311 312 311 310 312 317 323 325 324 326 325 326 328 337 337 335 336 338 337 334 331 331 338 338
302 302 303 304 304 303 303 303 304 302 302 304 304 304 306 307 306 306 307 307 308 310 310 311 312 313 311 312 316 318 321 323 326 327 327 328 334 334 335 337 334 333 333 333 338 336 333
303 302 302 303 303 303 303 303 304 304 302 303 304 304 305 305 305 306 306 307 306 308 309 309 311 312 314 312 313 314 316 319 322 327 329 330 331 330 334 336 337 332 332 336 347 346 338
304 304 303 303 302 303 303 303 303 301 302 302 303 304 305 306 306 304 305 305 306 306 307 308 310 311 313 318 320 320 319 318 325 324 327 331 330 331 332 331 338 332 336 337 338 338 345